[[{"header":{"parameterUnit":"m.s-1","parameterCategory":1,"la1":30.2991,"la2":30.254,"lo1":-89.0895,"lo2":-89.0444,"dy":0.0017,"dx":0.0017,"nx":28,"ny":28,"refTime":"2025-09-02T21:00:00:Z","depth":0,"parameterNumber":2,"parameterNumberName":"U-component_of_WINDS"},"data":[0,0,0,0,0,0,0,0,0,0,0,0,0,0,0,0,0,0,0,0,0,0,0,0,0,0,0,0,0,0,0,0,0,0,0,0,0,0,0,0,0,0,0,0,0,0,0,0,0,0,0,0,0,0,0,0,0,0,-0.0842,-0.0842,0,-0.0883,-0.0884,-0.0884,-0.0875,-0.0875,-0.0874,-0.0873,-0.0919,-0.0921,-0.0922,0,0,0,0,0,0,0,0,0,0,0,0,0,-0.0757,-0.0759,-0.0842,-0.0842,-0.0843,-0.0883,-0.0884,-0.0884,-0.0876,-0.0875,-0.0874,-0.0873,-0.0918,-0.092,-0.0923,0,0,0,0,0,0,0,0,0,0,0,0,0,-0.0796,-0.0759,-0.0842,-0.0843,-0.0844,-0.0883,-0.0884,-0.0885,-0.0876,-0.0875,-0.0873,-0.0872,-0.0917,-0.092,-0.0923,-0.0964,0,0,-0.0932,-0.0933,0,0,0,0,0,0,0,0,-0.0794,-0.0799,-0.0842,-0.0843,-0.0844,-0.0873,-0.0871,-0.0911,-0.0876,-0.0864,-0.0873,-0.0872,-0.0905,-0.0908,-0.0919,-0.0967,-0.0969,-0.0932,-0.0934,-0.0935,-0.0936,0,0,0,0,0,0,0,-0.0791,-0.0797,-0.0858,-0.0843,-0.0844,-0.0843,-0.0847,-0.0878,-0.089,-0.0865,-0.0864,-0.0869,-0.0905,-0.0916,-0.092,-0.0969,-0.0932,-0.0935,-0.0936,-0.0938,-0.1053,-0.1055,0,0,0,0,0,0,-0.0787,-0.0795,-0.0857,-0.086,-0.0815,-0.0845,-0.085,-0.0865,-0.089,-0.0893,-0.087,-0.0868,-0.0912,-0.0917,-0.0922,-0.0972,-0.0935,-0.0938,-0.094,-0.1052,-0.1054,-0.1055,0,0,0,0,0,0,-0.0785,-0.0793,-0.0855,-0.0827,-0.0835,-0.0848,-0.0865,-0.0866,-0.0878,-0.0894,-0.0896,-0.0879,-0.0911,-0.0917,-0.0954,-0.0974,-0.0939,-0.0942,-0.1051,-0.1053,-0.1054,-0.1074,0,0,0,0,0,0,-0.0783,-0.0792,-0.0808,-0.0827,-0.0836,-0.0886,-0.0866,-0.0868,-0.0882,-0.0881,-0.0903,-0.0906,-0.0911,-0.0949,-0.0957,-0.0977,-0.0944,-0.1049,-0.1051,-0.1054,-0.1072,-0.1076,-0.108,0,0,0,0,0,-0.078,-0.0812,-0.0809,-0.0816,-0.0856,-0.0887,-0.0893,-0.0897,-0.0884,-0.09,-0.091,-0.0905,-0.097,-0.0953,-0.0961,-0.0983,-0.1048,-0.1051,-0.1054,-0.107,-0.1075,-0.108,0,0,0,0,0,0,-0.0796,-0.0815,-0.0811,-0.085,-0.0867,-0.0886,-0.0906,-0.0902,-0.0924,-0.0922,-0.0927,-0.0932,-0.0969,-0.0979,-0.096,-0.1025,-0.1007,-0.1012,-0.1017,-0.1022,-0.1026,-0.1024,-0.0947,0,0,0,0,0,-0.0803,-0.0826,-0.0842,-0.0875,-0.0884,-0.0893,-0.0907,-0.0909,-0.0927,-0.0934,-0.0947,-0.0966,-0.099,-0.1007,-0.103,-0.1072,-0.1078,-0.1091,-0.1096,-0.1099,-0.1104,-0.1127,-0.1134,-0.1065,-0.1065,-0.1065,0,0,-0.082,-0.0833,-0.0848,-0.0879,-0.0892,-0.0917,-0.09,-0.0927,-0.0945,-0.0939,-0.0974,-0.0984,-0.1005,-0.1044,-0.1063,-0.1054,-0.1124,-0.1103,-0.1106,-0.1108,-0.1131,-0.1138,-0.1144,-0.1067,-0.1067,-0.1066,0,0,-0.0864,-0.0875,-0.0905,-0.0918,-0.0938,-0.0944,-0.0951,-0.097,-0.0976,-0.1011,-0.1006,-0.1029,-0.1071,-0.1086,-0.1099,-0.1148,-0.1144,-0.1155,-0.1179,-0.1202,-0.1207,-0.1212,-0.123,-0.1237,-0.1159,-0.1159,-0.1159,0,-0.0883,-0.0919,-0.092,-0.0947,-0.0962,-0.0955,-0.0985,-0.0998,-0.1025,-0.1035,-0.1025,-0.1078,-0.1091,-0.1135,-0.1146,-0.1157,-0.1166,-0.1153,-0.1206,-0.1211,-0.1216,-0.1233,-0.124,-0.116,-0.116,-0.116,-0.116,0,-0.0941,-0.0966,-0.0988,-0.1013,-0.1029,-0.1057,-0.1064,-0.108,-0.108,-0.1087,-0.1123,-0.1139,-0.1166,-0.1176,-0.1176,-0.1219,-0.1213,-0.1205,-0.1188,-0.1223,-0.124,-0.1246,-0.1162,-0.1162,-0.1162,-0.1161,0,0,-0.0997,-0.1022,-0.103,-0.1041,-0.1062,-0.1082,-0.111,-0.1135,-0.1149,-0.1168,-0.1192,-0.1227,-0.1219,-0.1234,-0.1236,-0.1256,-0.1294,-0.1245,-0.1246,-0.1255,-0.1344,-0.1351,-0.1359,-0.1291,-0.1292,-0.1293,-0.1342,0,-0.1044,-0.1092,-0.1094,-0.1139,-0.1163,-0.1157,-0.1182,-0.1198,-0.1205,-0.1227,-0.1235,-0.126,-0.1247,-0.1256,-0.1275,-0.1286,-0.1313,-0.1282,-0.1315,-0.1317,-0.1312,-0.1367,-0.1375,-0.1421,-0.1349,-0.135,-0.135,0,-0.1105,-0.1124,-0.1171,-0.1188,-0.1198,-0.122,-0.1243,-0.1264,-0.1282,-0.1286,-0.1302,-0.1301,-0.133,-0.1311,-0.1352,-0.1331,-0.1345,-0.1352,-0.1354,-0.1358,-0.1337,-0.1375,-0.1435,-0.1443,-0.136,-0.136,-0.1359,0,-0.1142,-0.118,-0.1213,-0.1222,-0.1243,-0.1259,-0.1268,-0.1285,-0.13,-0.132,-0.133,-0.1354,-0.1367,-0.1386,-0.1391,-0.1376,-0.1433,-0.1414,-0.1438,-0.1438,-0.1452,-0.1451,-0.1517,-0.1458,-0.1458,-0.1458,-0.1458,0,-0.1194,-0.1224,-0.123,-0.1251,-0.1283,-0.1285,-0.1318,-0.1326,-0.1341,-0.1364,-0.136,-0.1381,-0.1386,-0.1409,-0.1414,-0.1448,-0.1454,-0.1458,-0.146,-0.146,-0.1459,-0.147,-0.1467,-0.146,-0.1459,-0.1459,-0.1459,0,-0.1243,-0.1248,-0.1284,-0.13,-0.1304,-0.1328,-0.1342,-0.1362,-0.1368,-0.1397,-0.1404,-0.1414,-0.1441,-0.1447,-0.1479,-0.1482,-0.1523,-0.152,-0.1517,-0.1517,-0.1541,-0.154,-0.1618,-0.1628,-0.1561,-0.1562,-0.1562,0,-0.1277,-0.1299,-0.1317,-0.1331,-0.1341,-0.1365,-0.1379,-0.1382,-0.1397,-0.1419,-0.1437,-0.1462,-0.1483,-0.1526,-0.1537,-0.1561,-0.156,-0.1586,-0.1564,-0.1563,-0.1562,-0.1561,-0.1564,-0.159,-0.1591,-0.1592,-0.1592,0,-0.1337,-0.1338,-0.1359,-0.138,-0.1398,-0.1415,-0.1432,-0.1444,-0.1449,-0.1467,-0.1494,-0.151,-0.1541,-0.1568,-0.1592,-0.1602,-0.1599,-0.1599,-0.1606,-0.1607,-0.1604,-0.1607,-0.153,-0.1597,-0.1597,-0.1596,-0.1596,-0.1596,-0.138,-0.1399,-0.1415,-0.1438,-0.1451,-0.1466,-0.1486,-0.1494,-0.1516,-0.1541,-0.1541,-0.157,-0.1588,-0.162,-0.1632,-0.1655,-0.1647,-0.1658,-0.166,-0.1663,-0.1666,-0.1599,-0.1659,-0.1659,-0.1659,-0.1659,-0.1659,0,-0.1441,-0.145,-0.1471,-0.1494,-0.1513,-0.1505,-0.1524,-0.154,-0.1565,-0.1581,-0.1601,-0.1632,-0.1657,-0.1669,-0.1694,-0.171,-0.1709,-0.1717,-0.1716,-0.1719,-0.1671,-0.1663,-0.1717,-0.1717,-0.1717,-0.1717,-0.1717,-0.1717,-0.1474,-0.1507,-0.151,-0.1549,-0.1559,-0.1586,-0.1597,-0.1612,-0.1625,-0.1658,-0.1679,-0.1686,-0.17,-0.1726,-0.1749,-0.1752,-0.1762,-0.1771,-0.1773,-0.1728,-0.1722,-0.1717,-0.1709,-0.1772,-0.1772,-0.1819,-0.182,-0.182]},{"header":{"parameterUnit":"m.s-1","parameterCategory":1,"la1":30.2991,"la2":30.254,"lo1":-89.0895,"lo2":-89.0444,"dy":0.0017,"dx":0.0017,"nx":28,"ny":28,"refTime":"2025-09-02T21:00:00:Z","depth":0,"parameterNumber":3,"parameterNumberName":"V-component_of_WINDS"},"data":[0,0,0,0,0,0,0,0,0,0,0,0,0,0,0,0,0,0,0,0,0,0,0,0,0,0,0,0,0,0,0,0,0,0,0,0,0,0,0,0,0,0,0,0,0,0,0,0,0,0,0,0,0,0,0,0,0,0,-0.6592,-0.6593,0,-0.6684,-0.6685,-0.6686,-0.6758,-0.6759,-0.6759,-0.676,-0.6857,-0.6858,-0.686,0,0,0,0,0,0,0,0,0,0,0,0,0,-0.6479,-0.6481,-0.6592,-0.6593,-0.6594,-0.6684,-0.6685,-0.6687,-0.6758,-0.6759,-0.6759,-0.676,-0.6856,-0.6858,-0.6861,0,0,0,0,0,0,0,0,0,0,0,0,0,-0.6545,-0.6481,-0.6591,-0.664,-0.6646,-0.6684,-0.6685,-0.6687,-0.6758,-0.6759,-0.676,-0.6761,-0.6855,-0.6858,-0.6861,-0.6858,0,0,-0.687,-0.6871,0,0,0,0,0,0,0,0,-0.6541,-0.6549,-0.6632,-0.6637,-0.6643,-0.6711,-0.6681,-0.6745,-0.6757,-0.6715,-0.676,-0.6761,-0.6807,-0.6814,-0.6829,-0.6863,-0.6867,-0.687,-0.6872,-0.6873,-0.6874,0,0,0,0,0,0,0,-0.6537,-0.6546,-0.6628,-0.6633,-0.664,-0.6658,-0.6669,-0.6693,-0.6754,-0.6719,-0.6724,-0.6734,-0.681,-0.6826,-0.6832,-0.6869,-0.687,-0.6872,-0.6874,-0.6875,-0.6906,-0.6905,0,0,0,0,0,0,-0.6524,-0.6542,-0.6625,-0.6631,-0.6594,-0.666,-0.6671,-0.6688,-0.6754,-0.6765,-0.6733,-0.6737,-0.6821,-0.6829,-0.6836,-0.6838,-0.6873,-0.6876,-0.6877,-0.6907,-0.6906,-0.6905,0,0,0,0,0,0,-0.6522,-0.6531,-0.6622,-0.6588,-0.6601,-0.666,-0.6678,-0.6689,-0.6705,-0.6765,-0.6777,-0.6738,-0.6822,-0.6832,-0.6852,-0.6842,-0.6877,-0.688,-0.6908,-0.6907,-0.6906,-0.6842,0,0,0,0,0,0,-0.6518,-0.653,-0.6529,-0.6587,-0.6602,-0.6636,-0.6678,-0.669,-0.671,-0.6716,-0.6773,-0.6783,-0.6824,-0.6848,-0.6855,-0.6847,-0.6882,-0.691,-0.6908,-0.6906,-0.6845,-0.6838,-0.6833,0,0,0,0,0,-0.6514,-0.6507,-0.6528,-0.6538,-0.6602,-0.6635,-0.6644,-0.669,-0.6709,-0.6709,-0.6747,-0.6781,-0.6842,-0.6849,-0.6858,-0.6851,-0.691,-0.6908,-0.6906,-0.6848,-0.684,-0.6833,0,0,0,0,0,0,-0.6446,-0.6516,-0.654,-0.6552,-0.6587,-0.6647,-0.6648,-0.6679,-0.671,-0.6715,-0.6771,-0.6784,-0.6798,-0.6827,-0.6833,-0.6853,-0.6881,-0.688,-0.6833,-0.6826,-0.682,-0.6812,-0.6884,0,0,0,0,0,-0.6432,-0.6452,-0.6513,-0.6517,-0.6534,-0.6588,-0.6604,-0.6636,-0.6675,-0.669,-0.6731,-0.6768,-0.6796,-0.6812,-0.6841,-0.685,-0.6864,-0.6849,-0.6843,-0.6838,-0.6836,-0.6844,-0.6838,-0.6898,-0.6898,-0.6898,0,0,-0.6405,-0.6445,-0.6454,-0.6505,-0.6536,-0.6556,-0.66,-0.6619,-0.6635,-0.6694,-0.6715,-0.6746,-0.6792,-0.6806,-0.6815,-0.6831,-0.6823,-0.6835,-0.683,-0.6832,-0.6841,-0.6835,-0.683,-0.6897,-0.6897,-0.6897,0,0,-0.6364,-0.6397,-0.6404,-0.6435,-0.6481,-0.6517,-0.6519,-0.6575,-0.6597,-0.662,-0.6665,-0.6685,-0.6731,-0.6762,-0.6784,-0.6756,-0.6789,-0.6764,-0.6731,-0.6738,-0.6733,-0.6729,-0.672,-0.6716,-0.6763,-0.6763,-0.6762,0,-0.6324,-0.6355,-0.6405,-0.6422,-0.6443,-0.6497,-0.6506,-0.6533,-0.6586,-0.66,-0.6617,-0.6677,-0.6711,-0.6734,-0.6727,-0.6743,-0.6747,-0.6757,-0.673,-0.6726,-0.6723,-0.6715,-0.6711,-0.6759,-0.676,-0.676,-0.676,0,-0.6304,-0.6325,-0.6326,-0.6376,-0.6397,-0.641,-0.6462,-0.6478,-0.6509,-0.6544,-0.6567,-0.661,-0.6649,-0.6657,-0.6688,-0.6685,-0.6693,-0.6719,-0.6748,-0.6713,-0.6707,-0.6704,-0.6754,-0.6756,-0.6757,-0.6757,0,0,-0.6222,-0.63,-0.6299,-0.6323,-0.6378,-0.6396,-0.6412,-0.645,-0.6463,-0.6498,-0.6513,-0.6552,-0.6576,-0.6601,-0.6636,-0.6641,-0.6617,-0.6667,-0.6669,-0.6656,-0.6617,-0.6597,-0.6592,-0.664,-0.6639,-0.6639,-0.6614,0,-0.619,-0.622,-0.6266,-0.6282,-0.6303,-0.6355,-0.6369,-0.6405,-0.6438,-0.6461,-0.6499,-0.6525,-0.6555,-0.6571,-0.6579,-0.6618,-0.661,-0.6621,-0.6655,-0.6655,-0.6641,-0.6589,-0.6567,-0.6541,-0.6611,-0.6611,-0.661,0,-0.6157,-0.6189,-0.6206,-0.6261,-0.6272,-0.6283,-0.6322,-0.6343,-0.6386,-0.641,-0.6438,-0.6475,-0.6496,-0.6523,-0.6552,-0.6559,-0.6576,-0.6597,-0.6597,-0.6602,-0.663,-0.6592,-0.6534,-0.653,-0.6607,-0.6607,-0.6607,0,-0.6095,-0.6143,-0.616,-0.6179,-0.6243,-0.6251,-0.6278,-0.6322,-0.6341,-0.6376,-0.6389,-0.6425,-0.6445,-0.6473,-0.652,-0.6535,-0.6544,-0.6575,-0.6565,-0.6564,-0.6564,-0.6564,-0.6508,-0.6575,-0.6576,-0.6576,-0.6576,0,-0.6055,-0.6063,-0.6134,-0.6144,-0.6156,-0.6209,-0.6219,-0.6252,-0.629,-0.6308,-0.6356,-0.6373,-0.6434,-0.6458,-0.6495,-0.6514,-0.6523,-0.6543,-0.6553,-0.6539,-0.6536,-0.655,-0.6553,-0.6575,-0.6575,-0.6575,-0.6575,0,-0.5988,-0.6035,-0.6057,-0.6116,-0.6132,-0.6138,-0.6189,-0.6202,-0.6238,-0.6261,-0.6269,-0.6327,-0.6357,-0.6407,-0.6452,-0.6478,-0.649,-0.6506,-0.6475,-0.6481,-0.6468,-0.6469,-0.642,-0.6416,-0.6485,-0.6485,-0.6484,0,-0.5958,-0.5966,-0.6027,-0.6042,-0.6068,-0.6092,-0.6113,-0.6166,-0.6185,-0.6235,-0.6242,-0.6276,-0.6306,-0.6353,-0.6399,-0.6435,-0.6452,-0.6433,-0.6458,-0.6444,-0.6452,-0.6451,-0.6452,-0.6427,-0.6426,-0.6425,-0.6424,0,-0.5902,-0.5925,-0.5952,-0.5988,-0.6012,-0.6043,-0.6076,-0.6086,-0.6147,-0.6167,-0.6198,-0.6222,-0.6268,-0.6302,-0.6344,-0.6373,-0.6409,-0.6416,-0.6416,-0.6401,-0.6382,-0.6392,-0.6459,-0.6417,-0.6417,-0.6418,-0.6418,-0.6419,-0.5853,-0.5863,-0.5907,-0.5936,-0.5967,-0.5997,-0.6012,-0.6051,-0.6078,-0.6119,-0.6149,-0.6179,-0.6223,-0.6283,-0.631,-0.6335,-0.6351,-0.635,-0.635,-0.6349,-0.6344,-0.6379,-0.6343,-0.6343,-0.6344,-0.6344,-0.6344,0,-0.5798,-0.583,-0.5856,-0.5901,-0.5925,-0.5956,-0.5995,-0.6013,-0.6038,-0.6076,-0.6105,-0.6142,-0.6175,-0.6224,-0.6261,-0.6272,-0.6289,-0.628,-0.6279,-0.6286,-0.6328,-0.6324,-0.6265,-0.6265,-0.6265,-0.6265,-0.6265,-0.6265,-0.5773,-0.5791,-0.582,-0.5854,-0.5886,-0.5915,-0.5935,-0.5963,-0.5994,-0.6033,-0.606,-0.6092,-0.6135,-0.6176,-0.6208,-0.6222,-0.6233,-0.6219,-0.6237,-0.6275,-0.6283,-0.629,-0.6287,-0.6221,-0.6221,-0.6194,-0.6193,-0.6193]}]]